When you browse on this site, cookies collect data to enhance your experience and personalize the content and advertising you see.
Visit our Privacy Policy to learn more. By continuing to use the site, you agree to this use of cookies and data.
  • In Netherlands
  • List of Countries
  • For 7 days
  • Water Temperature
  • Satellite Maps
  • Weather Map
  • Weather Widgets
  • user-avatar
    Login

    Hourly Weather Malaga

    Today, 18 November, Sunday

    Time Temperature Precipitation Wind Pressure Humidity
    00:00 +16°C° 0.1 mm 5 mps 755 mmHg 88%
    01:00 +15°C° 0.1 mm 5 mps 754 mmHg 87%
    02:00 +15°C° 0.1 mm 5 mps 754 mmHg 86%
    03:00 +15°C° 0.1 mm 5 mps 753 mmHg 86%
    04:00 +15°C° 0.1 mm 5 mps 753 mmHg 85%
    05:00 +15°C° 0.1 mm 5 mps 753 mmHg 85%
    06:00 +15°C° 0.1 mm 5 mps 752 mmHg 84%
    07:00 +15°C° 0.3 mm 6 mps 752 mmHg 82%
    08:00 +16°C° 0.3 mm 6 mps 752 mmHg 80%
    09:00 +16°C° 0.3 mm 6 mps 752 mmHg 78%
    10:00 +16°C° 2.2 mm 6 mps 752 mmHg 81%
    11:00 +15°C° 2.2 mm 5 mps 752 mmHg 84%
    12:00 +15°C° 2.2 mm 5 mps 752 mmHg 87%
    13:00 +15°C° 1.9 mm 4 mps 752 mmHg 86%
    14:00 +15°C° 1.9 mm 4 mps 751 mmHg 85%
    15:00 +16°C° 1.9 mm 3 mps 751 mmHg 84%
    16:00 +16°C° 1.4 mm 3 mps 751 mmHg 86%
    17:00 +16°C° 1.4 mm 3 mps 751 mmHg 88%
    18:00 +14°C° 1.4 mm 3 mps 751 mmHg 90%
    19:00 +14°C° 0.5 mm 3 mps 751 mmHg 90%
    20:00 +14°C° 0.5 mm 3 mps 751 mmHg 89%
    21:00 +14°C° 0.5 mm 3 mps 751 mmHg 89%
    22:00 +15°C° 0.2 mm 2 mps 750 mmHg 89%
    23:00 +15°C° 0.2 mm 2 mps 750 mmHg 89%

    Tomorrow, 19 November, Monday

    Time Temperature Precipitation Wind Pressure Humidity
    00:00 +14°C° 0.2 mm 2 mps 750 mmHg 90%
    01:00 +14°C° 0.2 mm 2 mps 750 mmHg 90%
    02:00 +14°C° 0.2 mm 2 mps 750 mmHg 91%
    03:00 +13°C° 0.2 mm 3 mps 750 mmHg 91%
    04:00 +13°C° 0.4 mm 3 mps 750 mmHg 91%
    05:00 +13°C° 0.4 mm 3 mps 750 mmHg 91%
    06:00 +13°C° 0.4 mm 3 mps 750 mmHg 91%
    07:00 +13°C° 0.3 mm 3 mps 750 mmHg 89%
    08:00 +14°C° 0.3 mm 3 mps 751 mmHg 88%
    09:00 +14°C° 0.3 mm 4 mps 751 mmHg 86%
    10:00 +15°C° 0.1 mm 4 mps 751 mmHg 82%
    11:00 +15°C° 0.1 mm 5 mps 751 mmHg 78%
    12:00 +16°C° 0.1 mm 5 mps 751 mmHg 75%
    13:00 +16°C° 0.2 mm 6 mps 751 mmHg 76%
    14:00 +16°C° 0.2 mm 6 mps 750 mmHg 77%
    15:00 +16°C° 0.2 mm 6 mps 750 mmHg 78%
    16:00 +15°C° 0.2 mm 6 mps 751 mmHg 81%
    17:00 +15°C° 0.2 mm 6 mps 751 mmHg 84%
    18:00 +14°C° 0.2 mm 6 mps 751 mmHg 88%
    19:00 +14°C° 0.1 mm 5 mps 752 mmHg 89%
    20:00 +14°C° 0.1 mm 5 mps 752 mmHg 89%
    21:00 +14°C° 0.1 mm 5 mps 753 mmHg 90%
    22:00 +14°C° 0.1 mm 5 mps 753 mmHg 90%
    23:00 +14°C° 0.1 mm 5 mps 753 mmHg 91%

    Day after tomorrow, 20 November, Tuesday

    Time Temperature Precipitation Wind Pressure Humidity
    00:00 +13°C° 0.1 mm 5 mps 753 mmHg 91%
    01:00 +13°C° 0 mm 5 mps 753 mmHg 91%
    02:00 +13°C° 0 mm 5 mps 753 mmHg 92%
    03:00 +13°C° 0 mm 5 mps 753 mmHg 92%
    04:00 +13°C° 0 mm 5 mps 753 mmHg 92%
    05:00 +12°C° 0 mm 5 mps 753 mmHg 92%
    06:00 +12°C° 0 mm 4 mps 753 mmHg 92%
    07:00 +13°C° 0.1 mm 4 mps 754 mmHg 89%
    08:00 +14°C° 0.1 mm 4 mps 754 mmHg 86%
    09:00 +14°C° 0.1 mm 4 mps 754 mmHg 83%
    10:00 +15°C° 0.3 mm 4 mps 754 mmHg 83%
    11:00 +15°C° 0.3 mm 5 mps 754 mmHg 83%
    12:00 +15°C° 0.3 mm 5 mps 754 mmHg 84%
    13:00 +16°C° 0.3 mm 5 mps 754 mmHg 81%
    14:00 +16°C° 0.3 mm 6 mps 754 mmHg 78%
    15:00 +16°C° 0.3 mm 6 mps 754 mmHg 75%
    16:00 +15°C° 0 mm 6 mps 754 mmHg 78%
    17:00 +15°C° 0 mm 6 mps 755 mmHg 82%
    18:00 +14°C° 0 mm 6 mps 755 mmHg 85%
    19:00 +14°C° 0.1 mm 5 mps 756 mmHg 86%
    20:00 +13°C° 0.1 mm 5 mps 756 mmHg 87%
    21:00 +13°C° 0.1 mm 5 mps 757 mmHg 89%
    22:00 +13°C° 0.1 mm 5 mps 757 mmHg 89%
    23:00 +13°C° 0.1 mm 5 mps 757 mmHg 90%

    21 November, Wednesday

    Time Temperature Precipitation Wind Pressure Humidity
    00:00 +13°C° 0.1 mm 4 mps 757 mmHg 91%
    01:00 +13°C° 0.1 mm 4 mps 757 mmHg 90%
    02:00 +13°C° 0.1 mm 4 mps 757 mmHg 90%
    03:00 +13°C° 0.1 mm 4 mps 757 mmHg 89%
    04:00 +13°C° 0.1 mm 4 mps 757 mmHg 89%
    05:00 +12°C° 0.1 mm 4 mps 757 mmHg 90%
    06:00 +12°C° 0.1 mm 3 mps 758 mmHg 90%
    07:00 +12°C° 0 mm 3 mps 758 mmHg 85%
    08:00 +13°C° 0 mm 3 mps 759 mmHg 81%
    09:00 +14°C° 0 mm 3 mps 759 mmHg 76%
    10:00 +14°C° 0 mm 3 mps 759 mmHg 71%
    11:00 +16°C° 0 mm 3 mps 759 mmHg 66%
    12:00 +17°C° 0 mm 3 mps 759 mmHg 60%
    13:00 +17°C° 0 mm 3 mps 759 mmHg 60%
    14:00 +17°C° 0 mm 3 mps 758 mmHg 60%
    15:00 +17°C° 0 mm 3 mps 758 mmHg 59%
    16:00 +16°C° 0.1 mm 3 mps 758 mmHg 65%
    17:00 +16°C° 0.1 mm 3 mps 759 mmHg 71%
    18:00 +14°C° 0.1 mm 3 mps 759 mmHg 77%
    19:00 +14°C° 0.1 mm 3 mps 759 mmHg 80%
    20:00 +13°C° 0.1 mm 3 mps 760 mmHg 83%
    21:00 +13°C° 0.1 mm 3 mps 760 mmHg 87%
    22:00 +12°C° 0.1 mm 3 mps 760 mmHg 88%
    23:00 +12°C° 0.1 mm 3 mps 760 mmHg 89%

    22 November, Thursday

    Time Temperature Precipitation Wind Pressure Humidity
    00:00 +13°C° 0.1 mm 2 mps 760 mmHg 91%
    01:00 +13°C° 0 mm 2 mps 760 mmHg 91%
    02:00 +13°C° 0 mm 2 mps 760 mmHg 91%
    03:00 +13°C° 0 mm 1 mps 759 mmHg 92%
    04:00 +12°C° 0.1 mm 1 mps 759 mmHg 92%
    05:00 +12°C° 0.1 mm 1 mps 759 mmHg 92%
    06:00 +12°C° 0.1 mm 1 mps 759 mmHg 93%
    07:00 +13°C° 0 mm 1 mps 760 mmHg 90%
    08:00 +13°C° 0 mm 1 mps 760 mmHg 87%
    09:00 +14°C° 0 mm 1 mps 760 mmHg 84%
    10:00 +15°C° 0.2 mm 1 mps 760 mmHg 80%
    11:00 +16°C° 0.2 mm 1 mps 760 mmHg 76%
    12:00 +16°C° 0.2 mm 2 mps 760 mmHg 72%
    13:00 +16°C° 0.2 mm 2 mps 760 mmHg 74%
    14:00 +16°C° 0.2 mm 1 mps 760 mmHg 76%
    15:00 +16°C° 0.2 mm 1 mps 760 mmHg 77%
    16:00 +15°C° 0.1 mm 1 mps 760 mmHg 80%
    17:00 +15°C° 0.1 mm 1 mps 760 mmHg 83%
    18:00 +14°C° 0.1 mm 1 mps 761 mmHg 86%
    19:00 +14°C° 0 mm 1 mps 761 mmHg 88%
    20:00 +14°C° 0 mm 1 mps 761 mmHg 89%
    21:00 +13°C° 0 mm 1 mps 762 mmHg 90%
    22:00 +13°C° 0 mm 1 mps 762 mmHg 91%
    23:00 +13°C° 0 mm 1 mps 762 mmHg 91%

    23 November, Friday

    Time Temperature Precipitation Wind Pressure Humidity
    00:00 +13°C° 0 mm 1 mps 762 mmHg 91%
    01:00 +13°C° 0 mm 1 mps 762 mmHg 90%
    02:00 +13°C° 0 mm 1 mps 762 mmHg 89%
    03:00 +13°C° 0 mm 1 mps 762 mmHg 89%
    04:00 +13°C° 0 mm 1 mps 762 mmHg 88%
    05:00 +13°C° 0 mm 1 mps 762 mmHg 88%
    06:00 +12°C° 0 mm 1 mps 762 mmHg 88%
    07:00 +13°C° 0 mm 1 mps 762 mmHg 84%
    08:00 +14°C° 0 mm 1 mps 762 mmHg 80%
    09:00 +15°C° 0 mm 1 mps 763 mmHg 76%
    10:00 +16°C° 0 mm 1 mps 762 mmHg 71%
    11:00 +18°C° 0 mm 1 mps 762 mmHg 66%
    12:00 +19°C° 0 mm 1 mps 762 mmHg 61%
    13:00 +19°C° 0 mm 1 mps 762 mmHg 62%
    14:00 +19°C° 0 mm 1 mps 761 mmHg 62%
    15:00 +19°C° 0 mm 1 mps 761 mmHg 62%
    16:00 +18°C° 0.1 mm 1 mps 761 mmHg 68%
    17:00 +16°C° 0.1 mm 1 mps 761 mmHg 74%
    18:00 +16°C° 0.1 mm 1 mps 761 mmHg 80%
    19:00 +15°C° 0.1 mm 1 mps 762 mmHg 80%
    20:00 +15°C° 0.1 mm 1 mps 762 mmHg 81%
    21:00 +15°C° 0.1 mm 1 mps 762 mmHg 82%
    22:00 +15°C° 0.3 mm 1 mps 762 mmHg 83%
    23:00 +15°C° 0.3 mm 1 mps 762 mmHg 84%
    Show more